TimeEST,TemperatureF,Dew PointF,Humidity,Sea Level PressureIn,VisibilityMPH,Wind Direction,Wind SpeedMPH,Gust SpeedMPH,PrecipitationIn,Events,Conditions,WindDirDegrees,DateUTC
12:15 AM,51.8,48.2,88,29.99,3.0,Calm,Calm,-,N/A,Rain,Light Rain,0,2012-12-08 05:15:00
12:35 AM,51.8,48.2,88,29.98,4.0,Calm,Calm,-,N/A,Rain,Light Rain,0,2012-12-08 05:35:00
12:55 AM,51.8,48.2,88,29.97,7.0,Calm,Calm,-,N/A,,Overcast,0,2012-12-08 05:55:00
1:15 AM,51.8,50.0,94,29.97,7.0,Calm,Calm,-,N/A,,Overcast,0,2012-12-08 06:15:00
1:35 AM,51.8,50.0,94,29.97,5.0,Calm,Calm,-,N/A,,Overcast,0,2012-12-08 06:35:00
1:55 AM,51.8,50.0,94,29.97,5.0,Calm,Calm,-,N/A,,Overcast,0,2012-12-08 06:55:00
2:15 AM,51.8,50.0,94,29.97,3.0,Calm,Calm,-,N/A,,Overcast,0,2012-12-08 07:15:00
2:35 AM,51.8,50.0,94,29.97,2.5,Calm,Calm,-,N/A,,Overcast,0,2012-12-08 07:35:00
2:55 AM,51.8,50.0,94,29.97,3.0,Calm,Calm,-,N/A,,Overcast,0,2012-12-08 07:55:00
3:15 AM,51.8,50.0,94,29.96,3.0,Calm,Calm,-,N/A,,Overcast,0,2012-12-08 08:15:00
3:35 AM,51.8,50.0,94,29.95,2.5,Calm,Calm,-,N/A,,Overcast,0,2012-12-08 08:35:00
3:55 AM,51.8,50.0,94,29.95,3.0,Calm,Calm,-,N/A,,Overcast,0,2012-12-08 08:55:00
4:15 AM,51.8,50.0,94,29.94,4.0,Calm,Calm,-,N/A,,Overcast,0,2012-12-08 09:15:00
4:35 AM,51.8,50.0,94,29.94,4.0,Calm,Calm,-,N/A,,Overcast,0,2012-12-08 09:35:00
4:55 AM,51.8,50.0,94,29.95,2.5,Calm,Calm,-,N/A,,Overcast,0,2012-12-08 09:55:00
5:15 AM,51.8,50.0,94,29.94,1.8,SSE,3.5,-,N/A,,Overcast,160,2012-12-08 10:15:00
5:35 AM,51.8,50.0,94,29.94,1.2,South,3.5,-,N/A,,Overcast,170,2012-12-08 10:35:00
6:15 AM,51.8,51.8,100,29.95,1.0,SSW,3.5,-,N/A,,Overcast,200,2012-12-08 11:15:00
6:35 AM,51.8,51.8,100,29.96,1.2,SW,4.6,-,N/A,,Overcast,230,2012-12-08 11:35:00
6:55 AM,51.8,51.8,100,29.96,0.8,SSW,4.6,-,N/A,,Overcast,210,2012-12-08 11:55:00
7:15 AM,51.8,51.8,100,29.96,0.5,SW,3.5,-,N/A,Fog,Fog,220,2012-12-08 12:15:00
7:35 AM,51.8,51.8,100,29.96,0.2,SSW,3.5,-,N/A,Fog,Fog,210,2012-12-08 12:35:00
7:55 AM,53.6,51.8,94,29.96,0.5,SW,6.9,-,N/A,Fog,Fog,220,2012-12-08 12:55:00
8:15 AM,53.6,51.8,94,29.97,1.8,SW,6.9,-,N/A,,Overcast,220,2012-12-08 13:15:00
8:35 AM,53.6,51.8,94,29.98,3.0,WSW,8.1,-,N/A,,Overcast,240,2012-12-08 13:35:00
8:55 AM,53.6,51.8,94,29.98,4.0,SW,6.9,-,N/A,,Overcast,230,2012-12-08 13:55:00
9:15 AM,53.6,51.8,94,29.98,5.0,SW,6.9,-,N/A,,Overcast,230,2012-12-08 14:15:00
9:35 AM,53.6,51.8,94,29.99,7.0,SW,5.8,-,N/A,,Overcast,220,2012-12-08 14:35:00
9:55 AM,53.6,51.8,94,29.99,10.0,SW,4.6,-,N/A,,Overcast,230,2012-12-08 14:55:00
10:15 AM,53.6,51.8,94,30.00,10.0,SW,6.9,-,N/A,,Overcast,220,2012-12-08 15:15:00
10:35 AM,55.4,51.8,88,30.00,10.0,SSW,6.9,-,N/A,,Overcast,210,2012-12-08 15:35:00
10:55 AM,55.4,51.8,88,29.99,10.0,SW,8.1,-,N/A,,Mostly Cloudy,230,2012-12-08 15:55:00
11:15 AM,57.2,53.6,88,29.99,10.0,WSW,3.5,-,N/A,,Scattered Clouds,250,2012-12-08 16:15:00
11:35 AM,57.2,53.6,88,29.97,10.0,SW,5.8,-,N/A,,Scattered Clouds,230,2012-12-08 16:35:00
11:55 AM,60.8,51.8,72,29.96,10.0,SW,4.6,-,N/A,,Clear,220,2012-12-08 16:55:00
12:15 PM,60.8,51.8,72,29.96,10.0,SSW,6.9,-,N/A,,Clear,210,2012-12-08 17:15:00
12:35 PM,62.6,51.8,68,29.95,10.0,SW,5.8,-,N/A,,Clear,230,2012-12-08 17:35:00
12:55 PM,62.6,53.6,72,29.94,10.0,South,4.6,-,N/A,,Clear,190,2012-12-08 17:55:00
1:15 PM,62.6,51.8,68,29.94,10.0,South,3.5,-,N/A,,Clear,190,2012-12-08 18:15:00
1:35 PM,64.4,53.6,68,29.94,10.0,South,4.6,-,N/A,,Clear,180,2012-12-08 18:35:00
1:55 PM,64.4,53.6,68,29.93,10.0,South,3.5,-,N/A,,Clear,190,2012-12-08 18:55:00
2:15 PM,64.4,53.6,68,29.93,10.0,South,5.8,-,N/A,,Clear,180,2012-12-08 19:15:00
2:35 PM,64.4,53.6,68,29.93,10.0,South,4.6,-,N/A,,Clear,190,2012-12-08 19:35:00
2:55 PM,66.2,53.6,64,29.94,10.0,SSW,4.6,-,N/A,,Clear,200,2012-12-08 19:55:00
3:15 PM,66.2,53.6,64,29.94,10.0,SSW,4.6,-,N/A,,Clear,210,2012-12-08 20:15:00
3:35 PM,64.4,53.6,68,29.94,10.0,SSW,4.6,-,N/A,,Clear,210,2012-12-08 20:35:00
3:55 PM,64.4,53.6,68,29.94,10.0,South,4.6,-,N/A,,Clear,190,2012-12-08 20:55:00
4:15 PM,62.6,53.6,72,29.94,10.0,SSE,4.6,-,N/A,,Clear,160,2012-12-08 21:15:00
4:35 PM,62.6,53.6,72,29.95,10.0,South,4.6,-,N/A,,Clear,190,2012-12-08 21:35:00
4:55 PM,60.8,53.6,77,29.96,10.0,South,4.6,-,N/A,,Clear,190,2012-12-08 21:55:00
5:15 PM,59.0,53.6,82,29.97,10.0,SSW,3.5,-,N/A,,Clear,200,2012-12-08 22:15:00
5:35 PM,57.2,53.6,88,29.97,10.0,SSW,4.6,-,N/A,,Clear,210,2012-12-08 22:35:00
6:15 PM,57.2,51.8,82,29.98,10.0,Calm,Calm,-,N/A,,Clear,0,2012-12-08 23:15:00
6:35 PM,55.4,53.6,94,29.98,10.0,Calm,Calm,-,N/A,,Clear,0,2012-12-08 23:35:00
6:55 PM,55.4,51.8,88,29.99,10.0,South,3.5,-,N/A,,Clear,190,2012-12-08 23:55:00
7:15 PM,55.4,51.8,88,29.99,10.0,SSW,3.5,-,N/A,,Clear,200,2012-12-09 00:15:00
7:35 PM,51.8,50.0,94,30.00,10.0,Calm,Calm,-,N/A,,Clear,0,2012-12-09 00:35:00
7:55 PM,51.8,48.2,88,30.00,5.0,South,3.5,-,N/A,,Clear,190,2012-12-09 00:55:00
8:15 PM,51.8,50.0,94,30.00,5.0,Calm,Calm,-,N/A,,Clear,0,2012-12-09 01:15:00
8:35 PM,48.2,46.4,93,30.01,5.0,Calm,Calm,-,N/A,,Clear,0,2012-12-09 01:35:00
8:55 PM,48.2,46.4,93,30.01,0.8,Calm,Calm,-,N/A,,Mist,0,2012-12-09 01:55:00
9:15 PM,48.2,46.4,93,30.01,0.5,Calm,Calm,-,N/A,Fog,Fog,0,2012-12-09 02:15:00
9:35 PM,48.2,46.4,93,30.01,3.0,Calm,Calm,-,N/A,Rain,Light Rain,0,2012-12-09 02:35:00
9:55 PM,53.6,53.6,100,30.01,7.0,SSW,4.6,-,N/A,,Clear,200,2012-12-09 02:55:00
10:15 PM,53.6,51.8,94,30.01,7.0,SSW,3.5,-,N/A,,Clear,210,2012-12-09 03:15:00
10:35 PM,55.4,53.6,94,30.02,7.0,SSW,4.6,-,N/A,,Clear,210,2012-12-09 03:35:00
10:55 PM,55.4,53.6,94,30.02,10.0,SSW,4.6,-,N/A,,Clear,210,2012-12-09 03:55:00
11:15 PM,55.4,53.6,94,30.02,10.0,SW,5.8,-,N/A,,Clear,220,2012-12-09 04:15:00
11:35 PM,57.2,53.6,88,30.03,10.0,SSW,4.6,-,N/A,,Clear,200,2012-12-09 04:35:00
11:55 PM,57.2,53.6,88,30.03,7.0,SSW,5.8,-,N/A,,Clear,210,2012-12-09 04:55:00